GW6869 Weather Reports


time (UTC)temp
C
wind
direction
speed
KPH
gust
KPH
rain 1hr
cm
rain 24hr
cm
rain mn
cm
humidity
%
barometer
mb
20260503181554 28 0 0.0 3.2 0.00 0.00 0.00 42 1011.6
20260503180053 28 81 0.0 0.0 0.00 0.00 0.00 48 1011.7
20260503174610 27 0 0.0 0.0 0.00 0.00 0.00 49 1011.9
20260503173129 26 0 0.0 3.2 0.00 0.00 0.00 51 1012.0
20260503171553 26 0 0.0 1.6 0.00 0.00 0.00 52 1012.1
20260503090105 12 0 0.0 1.6 0.00 0.00 0.00 90 1013.1
20260503081558 12 0 0.0 1.6 0.00 0.00 0.00 90 1013.1
20260503071611 13 0 0.0 1.6 0.00 0.00 0.00 89 1013.2
20260503070111 13 0 0.0 0.0 0.00 0.00 0.00 89 1013.2
20260503060114 14 0 0.0 0.0 0.00 0.00 0.00 87 1013.2
20260503054557 14 0 0.0 0.0 0.00 0.03 0.00 87 1013.3
20260503053058 14 0 0.0 3.2 0.00 0.03 0.00 87 1013.3
20260503051553 15 243 1.6 4.8 0.00 0.03 0.00 87 1013.2
20260503050100 15 0 0.0 3.2 0.00 0.03 0.00 86 1012.8
20260503044554 15 0 0.0 0.0 0.00 0.03 0.00 86 1013.0
20260503043054 15 0 0.0 0.0 0.00 0.03 0.00 85 1013.2
20260503041552 15 0 0.0 4.8 0.00 0.03 0.00 85 1013.4
20260503040057 15 0 0.0 3.2 0.00 0.03 0.00 85 1013.6
20260503034553 16 0 0.0 0.0 0.00 0.03 0.00 84 1013.5
20260503033059 16 0 0.0 0.0 0.00 0.03 0.00 83 1013.5
20260503031552 16 0 0.0 0.0 0.00 0.03 0.00 82 1013.4
20260503030057 16 0 0.0 0.0 0.00 0.03 0.00 81 1013.4
20260503024553 17 0 0.0 0.0 0.00 0.03 0.00 81 1013.3
20260503023059 17 0 0.0 1.6 0.00 0.03 0.00 80 1013.4
20260503021554 17 302 0.0 4.8 0.00 0.03 0.00 78 1013.2
20260503020053 18 0 0.0 0.0 0.00 0.03 0.00 77 1012.9
20260503014607 18 0 0.0 0.0 0.00 0.03 0.00 74 1012.5
20260503013053 18 0 0.0 0.0 0.00 0.03 0.00 72 1012.4
20260503011617 19 0 0.0 1.6 0.00 0.03 0.00 73 1012.3
20260503010055 19 0 0.0 3.2 0.00 0.03 0.00 70 1012.3
20260503004552 19 0 0.0 1.6 0.00 0.03 0.00 70 1012.3
20260503003058 20 0 0.0 1.6 0.00 0.03 0.00 69 1012.3
20260503001611 20 0 0.0 0.0 0.00 0.03 0.00 68 1012.2
20260503000116 20 0 0.0 0.0 0.00 0.03 0.00 68 1012.3
20260502234614 19 0 0.0 0.0 0.00 0.03 0.00 69 1012.4
20260502233057 20 0 0.0 0.0 0.00 0.03 0.00 71 1012.3
20260502231553 19 193 0.0 4.8 0.00 0.03 0.00 70 1012.5
20260502230057 19 0 0.0 0.0 0.00 0.03 0.00 71 1012.7
20260502224555 19 0 0.0 3.2 0.00 0.03 0.00 70 1012.8
20260502223101 19 0 0.0 6.4 0.00 0.03 0.00 68 1013.0
20260502221552 18 0 0.0 3.2 0.00 0.03 0.00 71 1013.2
20260502220100 18 0 0.0 4.8 0.00 0.03 0.00 70 1013.4
20260502214556 18 0 0.0 8.0 0.00 0.03 0.00 71 1013.7
20260502213100 18 0 1.6 4.8 0.00 0.03 0.00 71 1013.8
20260502211553 17 169 0.0 1.6 0.00 0.03 0.00 75 1014.0
20260502210056 17 197 0.0 6.4 0.00 0.03 0.00 74 1014.1
20260502204603 16 0 0.0 0.0 0.00 0.03 0.00 76 1014.4
20260502203118 16 0 0.0 4.8 0.00 0.03 0.00 78 1014.5
20260502201616 15 0 0.0 9.7 0.00 0.03 0.00 79 1014.7
20260502200101 15 0 0.0 3.2 0.00 0.03 0.00 77 1014.9
20260502194559 16 336 0.0 4.8 0.00 0.03 0.00 78 1014.8
20260502193109 16 170 1.6 8.0 0.00 0.03 0.00 77 1014.9
20260502191556 15 0 0.0 0.0 0.00 0.03 0.00 81 1014.9
20260502190054 15 321 0.0 6.4 0.00 0.03 0.00 81 1014.8
20260502184602 15 263 0.0 11.3 0.00 0.03 0.00 83 1014.7
20260502183052 13 0 0.0 3.2 0.00 0.03 0.00 86 1014.4